Погода в Сухуме

Гана     6°01′59″N   0°27′26″E
темп.,
°C
ветер,
м/с
пор.,
м/с
влажн.,
%
обл.,
%
осадки,
мм/ч
давл.,
гПа
погр.,
м
11 мая, вт
вт1100:00+23ююз11933 0.0 101330
03:00+22зюз11942 0.0 101123
06:00+22зюз11966 0.0 101326
09:00+29юз22623 0.0 1014906
12:00+34ю11427 0.0 10121814
15:00+35ю333832 0.0 10092378
18:00+27ю36690 0.1 1011366
21:00+24ююз15881 0.0 1014223
12 мая, ср
ср1200:00+23юз14945 0.0 1013164
03:00+23юз139612 0.0 1012119
06:00+22з139715 0.0 1013116
09:00+28юз346416 0.0 1013958
12:00+33ююз224855 0.0 10121754
15:00+35ююз233946 0.0 10092319
18:00+25ю37815 1.2 1010235
21:00+23ююз13954 1.0 101397
13 мая, чт
чт1300:00+23юз13966 1.1 101377
03:00+22зюз129712 0.0 101152
06:00+22зюз119813 0.0 101246
09:00+28зюз236517 0.0 1013810
12:00+34юз224465 0.0 10101459
15:00+35ююз2239100 0.0 10081996
18:00+26ю377397 0.4 1009330
21:00+23ююз249193 0.3 1011131
14 мая, пт
пт1400:00+23юз12945 0.3 101177
03:00+22з119529 0.0 101029
06:00+22зюз12966 0.0 101154
09:00+29юз236585 0.0 1012897
12:00+35ююз234317 0.0 10091910
15:00+33ю544899 0.1 10071434
18:00+27ю48773 0.5 1010518
21:00+24ююз279319 0.0 1011427
15 мая, сб
сб1500:00+24юз129767 0.1 101164
03:00+23зюз139817 0.0 101083
06:00+23з129821 0.0 101150
09:00+29юз236532 0.0 1012911
12:00+35ююз234384 0.2 10102162
15:00+33ю334887 0.1 10081487
18:00+28ю47685 0.2 1009456
21:00+24ююз259617 0.8 1012201